Flag for Poland Weather past 2 weeks in Lublin, Poland

Now
55 °F

Passing clouds.


Feels Like: 53 °F
Forecast: 48 / 57 °F
Wind: 7 mph from West

Location: Lublin Radawiec

Current Time: Oct 20, 2014 at 11:37:20 PM

Latest Report: Oct 20, 2014 at 10:00 PM


Visibility: 22 mi

Pressure: 29.84 "Hg

Humidity: 77%

Dew point: 48 °F

Location of LublinLocation

Historic Weather in Lublin — Graph

°F

Lublin temperature yesterday

Maximum temperature yesterday: 62 °F (at 4:00 PM)
Minimum temperature yesterday: 41 °F (at 2:00 AM)
Average temperature yesterday: 51 °F

Past Weeks' High & Low Weather Summary

 TemperatureHumidityPressure
High72 °F (Oct 9, 2:00 PM)100% (Oct 16, 7:00 AM)30.40 "Hg (Oct 16, 7:00 AM)
Low38 °F (Oct 6, 7:00 AM)46% (Oct 6, 3:00 PM)29.70 "Hg (Oct 14, 1:00 PM)
Average55 °F84%30.01 "Hg
* Reported Oct 5 10:00 PM — Oct 20 10:00 PM, Lublin, Weather by CustomWeather, © 2014

Note: Actual official high and low records may vary slightly from our data, if they occured in-between our weather recording intervals... More about our weather records

Advertising

Lublin weather history for previous 24 hours

 ConditionsComfort  
Time TempWeatherWind HumidityBarometerVisibility
10:00 PM
Oct 20
55 °FPassing clouds.7 mph77%29.84 "Hg22 mi
9:00 PM56 °FOvercast.6 mph74%29.84 "Hg22 mi
8:00 PM56 °FPassing clouds.7 mph76%29.83 "Hg19 mi
7:00 PM55 °FPassing clouds.5 mph79%29.83 "Hg15 mi
6:00 PM56 °FPassing clouds.3 mph75%29.83 "Hg10 mi
5:00 PM58 °FPassing clouds.6 mph70%29.82 "Hg25 mi
4:00 PM60 °FPartly sunny.8 mph66%29.82 "Hg22 mi
3:00 PM60 °FOvercast.7 mph70%29.82 "Hg22 mi
2:00 PM61 °FPartly sunny.9 mph67%29.82 "Hg22 mi
1:00 PM62 °FScattered clouds.8 mph72%29.83 "Hg22 mi
12:00 PM59 °FPartly sunny.7 mph85%29.85 "Hg17 mi
11:00 AM58 °FLow clouds.6 mph94%29.86 "Hg11 mi
10:00 AM56 °FSprinkles. Overcast.3 mph95%29.82 "Hg6 mi
9:00 AM55 °FSprinkles. Overcast.6 mph94%29.87 "Hg6 mi
8:00 AM55 °FOvercast.3 mph90%29.85 "Hg7 mi
7:00 AM54 °FOvercast.3 mph89%29.85 "Hg10 mi
5:00 AM53 °FPassing clouds.3 mph89%29.88 "Hg10 mi
4:00 AM51 °FPassing clouds.3 mph90%29.90 "Hg10 mi
3:00 AM52 °FClear.3 mph88%29.91 "Hg11 mi
2:00 AM52 °FClear.5 mph87%29.93 "Hg12 mi
1:00 AM52 °FClear.5 mph86%29.95 "Hg12 mi
12:00 AM52 °FClear.3 mph87%29.96 "Hg11 mi
11:00 PM
Oct 19
52 °FClear.2 mph89%29.98 "Hg9 mi
Weather by CustomWeather, © 2014

See weather overviewHow to use our weather pages